Change the Weather History Date:

Friday, July 12, 2013

  Actual Average (KJMS) Record (KJMS)
Temperature  
Mean Temperature 75 °F 70 °F  
Max Temperature 82 °F 82 °F 108 °F (1936)
Min Temperature 68 °F 57 °F 43 °F (1924)
Degree Days  
Heating Degree Days 0 1  
Month to date heating degree days 12  
Since 1 June heating degree days 109  
Since 1 July heating degree days 12  
Cooling Degree Days 10 6  
Month to date cooling degree days 61  
Year to date cooling degree days 161  
Since 1 June cooling degree days 141  
Growing Degree Days 25 (Base 50)    
Moisture  
Dew Point 70 °F    
Average Humidity 85    
Maximum Humidity 100    
Minimum Humidity 70    
Precipitation  
Precipitation 0.00 in 0.12 in 1.60 in (1952)
Month to date precipitation 1.46  
Year to date precipitation 10.20  
Sea Level Pressure  
Sea Level Pressure 29.77 in    
Wind  
Wind Speed 11 mph (South)    
Max Wind Speed 21 mph    
Max Gust Speed 26 mph    
Visibility 10 miles    
Events      
T = Trace of Precipitation, MM = Missing Value Source: NWS Daily Summary

Daily Weather History Graph

Daily Weather History Graph

Search for Another Location

Airport or City:

Trip Planner

Search our weather history database for the weather conditions in past years. The results will help you decide how hot, cold, wet, or windy it might be!

Date:

Astronomy

Jul. 12, 2013 Rise Set
Actual Time 5:48 AM CDT 9:27 PM CDT
Civil Twilight 5:09 AM CDT 10:06 PM CDT
Nautical Twilight 4:16 AM CDT 10:58 PM CDT
Astronomical Twilight 3:04 AM CDT 12:10 AM CDT
Moon 10:28 AM CDT (7/12) 11:14 PM CDT (7/12)
Length of Visible Light 16h 56m
Length of Day
15h 39m
Waxing Crescent, 17% of the Moon is Illuminated
Jul 12
Waxing Crescent
Jul 15
First Quarter
Jul 22
Full
Jul 29
Last Quarter
Aug 6
New

Hourly Weather History & Observations

Time (CDT) Temp. Heat Index Dew Point Humidity Pressure Visibility Wind Dir Wind Speed Gust Speed Precip Events Conditions
12:15 AM 75.2 °F - 68.0 °F 78% 29.79 in 10.0 mi South 12.7 mph - N/A   Unknown
12:35 AM 75.2 °F - 68.0 °F 78% 29.77 in 10.0 mi South 11.5 mph - N/A   Clear
12:55 AM 75.2 °F - 68.0 °F 78% 29.74 in 10.0 mi SSE 12.7 mph 18.4 mph N/A   Clear
1:15 AM 75.2 °F - 68.0 °F 78% 29.74 in 10.0 mi South 13.8 mph - N/A   Unknown
1:35 AM 75.2 °F - 68.0 °F 78% 29.76 in 10.0 mi SSW 12.7 mph 20.7 mph N/A   Clear
1:55 AM 73.4 °F - 68.0 °F 83% 29.76 in 10.0 mi SSW 9.2 mph - N/A   Clear
2:15 AM 73.4 °F - 68.0 °F 83% 29.75 in 10.0 mi South 12.7 mph - N/A   Unknown
2:35 AM 73.4 °F - 68.0 °F 83% 29.76 in 10.0 mi South 11.5 mph - N/A   Clear
2:55 AM 73.4 °F - 68.0 °F 83% 29.74 in 10.0 mi South 11.5 mph - N/A   Clear
3:15 AM 73.4 °F - 68.0 °F 83% 29.74 in 10.0 mi SSE 11.5 mph - N/A   Unknown
3:35 AM 71.6 °F - 68.0 °F 88% 29.74 in 10.0 mi SSE 9.2 mph - N/A   Clear
3:55 AM 71.6 °F - 68.0 °F 88% 29.74 in 10.0 mi SSE 9.2 mph - N/A   Clear
4:15 AM 71.6 °F - 68.0 °F 88% 29.76 in 10.0 mi North 13.8 mph - N/A   Unknown
4:35 AM 71.6 °F - 68.0 °F 88% 29.77 in 10.0 mi North 11.5 mph - N/A   Clear
4:55 AM 71.6 °F - 68.0 °F 88% 29.76 in 10.0 mi NNE 8.1 mph - N/A   Clear
5:15 AM 71.6 °F - 68.0 °F 88% 29.75 in 10.0 mi South 11.5 mph - N/A   Unknown
5:35 AM 69.8 °F - 68.0 °F 94% 29.75 in 10.0 mi East 5.8 mph - N/A   Clear
5:55 AM 69.8 °F - 68.0 °F 94% 29.74 in 10.0 mi ESE 6.9 mph - N/A   Clear
6:15 AM 69.8 °F - 68.0 °F 94% 29.74 in 10.0 mi SSE 9.2 mph - N/A   Unknown
6:35 AM 71.6 °F - 68.0 °F 88% 29.74 in 10.0 mi SSE 9.2 mph - N/A   Clear
6:55 AM 71.6 °F - 68.0 °F 88% 29.73 in 10.0 mi SSE 11.5 mph - N/A   Clear
7:15 AM 71.6 °F - 68.0 °F 88% 29.72 in 10.0 mi South 13.8 mph 17.3 mph N/A   Unknown
7:35 AM 71.6 °F - 68.0 °F 88% 29.72 in 10.0 mi South 13.8 mph 20.7 mph N/A   Clear
7:55 AM 71.6 °F - 68.0 °F 88% 29.74 in 10.0 mi South 11.5 mph 17.3 mph N/A   Clear
8:15 AM 73.4 °F - 68.0 °F 83% 29.74 in 10.0 mi South 17.3 mph - N/A   Unknown
8:35 AM 73.4 °F - 68.0 °F 83% 29.74 in 10.0 mi South 15.0 mph 21.9 mph N/A   Clear
8:55 AM 73.4 °F - 68.0 °F 83% 29.73 in 10.0 mi South 17.3 mph 23.0 mph N/A   Clear
9:15 AM 73.4 °F - 68.0 °F 83% 29.73 in 10.0 mi South 12.7 mph 19.6 mph N/A   Clear
9:35 AM 73.4 °F - 69.8 °F 88% 29.71 in 10.0 mi South 18.4 mph 23.0 mph N/A   Clear
9:55 AM 77.0 °F - 69.8 °F 78% 29.70 in 10.0 mi South 20.7 mph 26.5 mph N/A   Clear
10:15 AM 77.0 °F - 69.8 °F 78% 29.72 in 10.0 mi SSW 16.1 mph 21.9 mph N/A   Unknown
10:35 AM 77.0 °F - 71.6 °F 83% 29.72 in 10.0 mi SSW 17.3 mph 20.7 mph N/A   Clear
10:55 AM 78.8 °F - 69.8 °F 74% 29.72 in 10.0 mi SSW 13.8 mph 20.7 mph N/A   Clear
11:15 AM 80.6 °F 84.6 °F 71.6 °F 74% 29.73 in 10.0 mi SSW 19.6 mph - N/A   Unknown
11:35 AM 80.6 °F 84.6 °F 71.6 °F 74% 29.73 in 10.0 mi SSW 13.8 mph 20.7 mph N/A   Clear
11:55 AM 82.4 °F 87.2 °F 71.6 °F 70% 29.73 in 10.0 mi SSW 16.1 mph - N/A   Clear
12:15 PM 82.4 °F 87.2 °F 71.6 °F 70% 29.74 in 10.0 mi SSW 11.5 mph - N/A   Unknown
12:35 PM 82.4 °F 87.2 °F 71.6 °F 70% 29.74 in 10.0 mi SSW 8.1 mph 17.3 mph N/A   Clear
12:55 PM 82.4 °F 87.2 °F 71.6 °F 70% 29.74 in 10.0 mi SW 6.9 mph - N/A   Partly Cloudy
1:15 PM 80.6 °F 84.6 °F 71.6 °F 74% 29.75 in 10.0 mi WSW 8.1 mph - N/A   Unknown
1:35 PM 80.6 °F 85.4 °F 73.4 °F 79% 29.74 in 10.0 mi West 5.8 mph - N/A   Mostly Cloudy
1:55 PM 80.6 °F 85.4 °F 73.4 °F 79% 29.75 in 10.0 mi West 5.8 mph - N/A   Mostly Cloudy
2:15 PM 80.6 °F 85.4 °F 73.4 °F 79% 29.77 in 10.0 mi WNW 3.5 mph - N/A   Unknown
2:35 PM 80.6 °F 85.4 °F 73.4 °F 79% 29.75 in 10.0 mi North 5.8 mph - N/A   Overcast
2:55 PM 80.6 °F 86.2 °F 75.2 °F 84% 29.77 in 10.0 mi North 9.2 mph - N/A   Overcast
3:15 PM 78.8 °F - 75.2 °F 89% 29.77 in 10.0 mi NNE 8.1 mph - N/A   Unknown
3:35 PM 80.6 °F 85.4 °F 73.4 °F 79% 29.77 in 10.0 mi North 10.4 mph - N/A   Scattered Clouds
3:55 PM 77.0 °F - 73.4 °F 89% 29.79 in 10.0 mi NNE 15.0 mph 18.4 mph N/A   Scattered Clouds
4:15 PM 77.0 °F - 73.4 °F 89% 29.77 in 10.0 mi NE 15.0 mph 19.6 mph N/A   Unknown
4:35 PM 77.0 °F - 69.8 °F 78% 29.79 in 10.0 mi NE 13.8 mph 20.7 mph N/A   Partly Cloudy
4:55 PM 75.2 °F - 71.6 °F 89% 29.80 in 10.0 mi NE 12.7 mph - N/A   Partly Cloudy
5:15 PM 75.2 °F - 71.6 °F 89% 29.80 in 10.0 mi NE 8.1 mph - N/A   Unknown
5:35 PM 77.0 °F - 71.6 °F 83% 29.80 in 10.0 mi NNE 8.1 mph - N/A   Partly Cloudy
5:55 PM 77.0 °F - 71.6 °F 83% 29.80 in 10.0 mi NE 6.9 mph - N/A   Partly Cloudy
6:15 PM 77.0 °F - 71.6 °F 83% 29.79 in 10.0 mi ENE 5.8 mph - N/A   Unknown
6:35 PM 77.0 °F - 71.6 °F 83% 29.79 in 10.0 mi NE 4.6 mph - N/A   Partly Cloudy
6:55 PM 77.0 °F - 71.6 °F 83% 29.80 in 10.0 mi NE 3.5 mph - N/A   Partly Cloudy
7:15 PM 77.0 °F - 71.6 °F 83% 29.80 in 10.0 mi Calm Calm - N/A   Unknown
7:35 PM 77.0 °F - 73.4 °F 89% 29.80 in 10.0 mi Calm Calm - N/A   Clear
7:55 PM 78.8 °F - 71.6 °F 78% 29.79 in 10.0 mi Calm Calm - N/A   Clear
8:15 PM 77.0 °F - 73.4 °F 89% 29.81 in 10.0 mi NNW 3.5 mph - N/A   Unknown
8:35 PM 77.0 °F - 73.4 °F 89% 29.81 in 10.0 mi Calm Calm - N/A   Clear
8:55 PM - - - N/A% - - North - - N/A   Unknown
9:15 PM 75.2 °F - 73.4 °F 94% 29.81 in 10.0 mi NNW 5.8 mph - N/A   Unknown
9:35 PM 73.4 °F - 73.4 °F 100% 29.81 in - NNW 4.6 mph - N/A   Unknown
9:55 PM 71.6 °F - 71.6 °F 100% 29.82 in 10.0 mi NNW 5.8 mph - N/A   Clear
10:15 PM 69.8 °F - 69.8 °F 100% 29.83 in 10.0 mi NNW 4.6 mph - N/A   Clear
10:35 PM 68.0 °F - 68.0 °F 100% 29.84 in 10.0 mi NNW 5.8 mph - N/A   Clear
10:55 PM 71.6 °F - 71.6 °F 100% 29.85 in 10.0 mi North 4.6 mph - N/A   Clear
11:15 PM 69.8 °F - 69.8 °F 100% 29.86 in 9.0 mi North 4.6 mph - N/A   Unknown
11:35 PM 68.0 °F - 68.0 °F 100% 29.87 in 10.0 mi North 4.6 mph - N/A   Clear
11:55 PM 68.0 °F - 68.0 °F 100% 29.88 in 7.0 mi NNW 3.5 mph - N/A   Clear